Time,TemperatureF,DewpointF,PressureIn,WindDirection,WindDirectionDegrees,WindSpeedMPH,WindSpeedGustMPH,Humidity,HourlyPrecipIn,Conditions,Clouds,dailyrainin,SoftwareType,DateUTC
2014-01-13 00:00:00,64.9,20.4,29.35,North,3,7.0,12.0,18,0.00,CLR,,0.00,WeatherDisplay:10.37,2014-01-13 08:00:00,
2014-01-13 00:05:00,64.8,20.2,29.35,North,357,7.0,12.0,18,0.00,CLR,,0.00,WeatherDisplay:10.37,2014-01-13 08:05:00,
2014-01-13 00:10:00,64.8,20.2,29.35,North,7,5.0,13.0,18,0.00,CLR,,0.00,WeatherDisplay:10.37,2014-01-13 08:10:00,
2014-01-13 00:20:00,64.5,20.0,29.35,North,350,3.0,11.0,18,0.00,CLR,,0.00,WeatherDisplay:10.37,2014-01-13 08:20:00,
2014-01-13 00:30:00,64.2,19.8,29.35,North,354,3.0,8.0,18,0.00,CLR,,0.00,WeatherDisplay:10.37,2014-01-13 08:30:00,
2014-01-13 00:40:00,63.9,19.5,29.35,North,352,5.0,13.0,18,0.00,CLR,,0.00,WeatherDisplay:10.37,2014-01-13 08:40:00,
2014-01-13 00:45:00,64.0,19.6,29.35,North,359,7.0,13.0,18,0.00,CLR,,0.00,WeatherDisplay:10.37,2014-01-13 08:45:00,
2014-01-13 00:50:00,64.2,19.8,29.35,North,10,7.0,13.0,18,0.00,CLR,,0.00,WeatherDisplay:10.37,2014-01-13 08:50:00,
2014-01-13 01:00:00,64.6,20.1,29.35,North,11,8.0,14.0,18,0.00,CLR,,0.00,WeatherDisplay:10.37,2014-01-13 09:00:00,
2014-01-13 01:05:00,64.6,20.1,29.35,North,0,5.0,9.0,18,0.00,CLR,,0.00,WeatherDisplay:10.37,2014-01-13 09:05:00,
2014-01-13 01:15:00,64.4,19.9,29.35,NNE,14,3.0,12.0,18,0.00,CLR,,0.00,WeatherDisplay:10.37,2014-01-13 09:15:00,
2014-01-13 01:20:00,64.4,19.9,29.35,North,9,5.0,9.0,18,0.00,CLR,,0.00,WeatherDisplay:10.37,2014-01-13 09:20:00,
2014-01-13 01:25:00,64.4,19.9,29.35,North,3,8.0,14.0,18,0.00,CLR,,0.00,WeatherDisplay:10.37,2014-01-13 09:25:00,
2014-01-13 01:30:00,64.4,19.9,29.35,North,357,9.0,15.0,18,0.00,CLR,,0.00,WeatherDisplay:10.37,2014-01-13 09:30:00,
2014-01-13 01:35:00,64.2,19.8,29.35,North,1,7.0,12.0,18,0.00,CLR,,0.00,WeatherDisplay:10.37,2014-01-13 09:35:00,
2014-01-13 01:40:00,64.4,19.9,29.35,North,358,7.0,15.0,18,0.00,CLR,,0.00,WeatherDisplay:10.37,2014-01-13 09:40:00,
2014-01-13 01:50:00,64.4,19.9,29.35,North,7,8.0,13.0,18,0.00,CLR,,0.00,WeatherDisplay:10.37,2014-01-13 09:50:00,
2014-01-13 01:55:00,64.4,19.9,29.35,North,354,8.0,18.0,18,0.00,CLR,,0.00,WeatherDisplay:10.37,2014-01-13 09:55:00,
2014-01-13 02:00:00,64.2,19.8,29.35,North,349,7.0,15.0,18,0.00,CLR,,0.00,WeatherDisplay:10.37,2014-01-13 10:00:00,
2014-01-13 02:05:00,64.2,19.8,29.35,North,352,8.0,11.0,18,0.00,CLR,,0.00,WeatherDisplay:10.37,2014-01-13 10:05:00,
2014-01-13 02:10:00,64.2,19.8,29.35,North,357,6.0,12.0,18,0.00,CLR,,0.00,WeatherDisplay:10.37,2014-01-13 10:10:00,
2014-01-13 02:20:00,64.0,19.6,29.35,North,9,7.0,13.0,18,0.00,CLR,,0.00,WeatherDisplay:10.37,2014-01-13 10:20:00,
2014-01-13 02:25:00,63.9,19.5,29.35,North,5,5.0,15.0,18,0.00,CLR,,0.00,WeatherDisplay:10.37,2014-01-13 10:25:00,
2014-01-13 02:30:00,63.9,19.5,29.35,NNE,20,6.0,13.0,18,0.00,CLR,,0.00,WeatherDisplay:10.37,2014-01-13 10:30:00,
2014-01-13 02:40:00,63.9,19.5,29.35,North,10,7.0,12.0,18,0.00,CLR,,0.00,WeatherDisplay:10.37,2014-01-13 10:40:00,
2014-01-13 02:45:00,63.9,19.5,29.35,NNE,15,5.0,11.0,18,0.00,CLR,,0.00,WeatherDisplay:10.37,2014-01-13 10:45:00,
2014-01-13 02:50:00,63.7,19.3,29.35,NNE,14,3.0,8.0,18,0.00,CLR,,0.00,WeatherDisplay:10.37,2014-01-13 10:50:00,
2014-01-13 02:55:00,63.3,19.0,29.35,North,358,5.0,9.0,18,0.00,CLR,,0.00,WeatherDisplay:10.37,2014-01-13 10:55:00,
2014-01-13 03:00:00,63.0,18.7,29.35,North,352,2.0,10.0,18,0.00,CLR,,0.00,WeatherDisplay:10.37,2014-01-13 11:00:00,
2014-01-13 03:05:00,62.6,18.4,29.35,North,350,3.0,9.0,18,0.00,CLR,,0.00,WeatherDisplay:10.37,2014-01-13 11:05:00,
2014-01-13 03:10:00,62.4,19.6,29.35,North,354,6.0,8.0,19,0.00,CLR,,0.00,WeatherDisplay:10.37,2014-01-13 11:10:00,
2014-01-13 03:20:00,62.4,19.6,29.35,North,352,6.0,13.0,19,0.00,CLR,,0.00,WeatherDisplay:10.37,2014-01-13 11:20:00,
2014-01-13 03:30:00,62.4,19.6,29.35,North,11,5.0,11.0,19,0.00,CLR,,0.00,WeatherDisplay:10.37,2014-01-13 11:30:00,
2014-01-13 03:40:00,62.2,19.4,29.35,North,352,6.0,13.0,19,0.00,CLR,,0.00,WeatherDisplay:10.37,2014-01-13 11:40:00,
2014-01-13 03:50:00,62.1,19.3,29.35,NNW,344,5.0,10.0,19,0.00,CLR,,0.00,WeatherDisplay:10.37,2014-01-13 11:50:00,
2014-01-13 03:55:00,61.9,19.1,29.35,NNW,337,6.0,12.0,19,0.00,CLR,,0.00,WeatherDisplay:10.37,2014-01-13 11:55:00,
2014-01-13 04:00:00,61.9,19.1,29.35,NNW,344,5.0,11.0,19,0.00,CLR,,0.00,WeatherDisplay:10.37,2014-01-13 12:00:00,
2014-01-13 04:05:00,61.9,19.1,29.35,North,355,6.0,8.0,19,0.00,CLR,,0.00,WeatherDisplay:10.37,2014-01-13 12:05:00,
2014-01-13 04:15:00,61.7,19.0,29.35,North,352,5.0,15.0,19,0.00,CLR,,0.00,WeatherDisplay:10.37,2014-01-13 12:15:00,
2014-01-13 04:20:00,61.7,19.0,29.35,North,3,6.0,12.0,19,0.00,CLR,,0.00,WeatherDisplay:10.37,2014-01-13 12:20:00,
2014-01-13 04:25:00,61.7,19.0,29.35,North,2,5.0,12.0,19,0.00,CLR,,0.00,WeatherDisplay:10.37,2014-01-13 12:25:00,
2014-01-13 04:30:00,61.5,18.8,29.35,North,356,7.0,13.0,19,0.00,CLR,,0.00,WeatherDisplay:10.37,2014-01-13 12:30:00,
2014-01-13 04:40:00,61.3,18.7,29.35,NNW,342,6.0,14.0,19,0.00,CLR,,0.00,WeatherDisplay:10.37,2014-01-13 12:40:00,
2014-01-13 04:45:00,61.3,18.7,29.35,North,3,7.0,11.0,19,0.00,CLR,,0.00,WeatherDisplay:10.37,2014-01-13 12:45:00,
2014-01-13 04:50:00,61.3,18.7,29.35,North,3,6.0,10.0,19,0.00,CLR,,0.00,WeatherDisplay:10.37,2014-01-13 12:50:00,
2014-01-13 05:00:00,61.0,18.4,29.35,North,1,5.0,10.0,19,0.00,CLR,,0.00,WeatherDisplay:10.37,2014-01-13 13:00:00,
2014-01-13 05:05:00,61.0,18.4,29.35,North,349,5.0,12.0,19,0.00,CLR,,0.00,WeatherDisplay:10.37,2014-01-13 13:05:00,
2014-01-13 05:10:00,60.8,18.2,29.35,North,350,3.0,12.0,19,0.00,CLR,,0.00,WeatherDisplay:10.37,2014-01-13 13:10:00,
2014-01-13 05:20:00,60.3,17.8,29.35,NNW,345,7.0,13.0,19,0.00,CLR,,0.00,WeatherDisplay:10.37,2014-01-13 13:20:00,
2014-01-13 05:30:00,60.0,17.5,29.35,NNW,343,7.0,13.0,19,0.00,CLR,,0.00,WeatherDisplay:10.37,2014-01-13 13:30:00,
2014-01-13 05:40:00,59.9,17.5,29.35,NNW,345,8.0,15.0,19,0.00,CLR,,0.00,WeatherDisplay:10.37,2014-01-13 13:40:00,
2014-01-13 05:50:00,60.2,17.8,29.35,North,357,13.0,22.0,19,0.00,CLR,,0.00,WeatherDisplay:10.37,2014-01-13 13:50:00,
2014-01-13 05:55:00,60.4,17.9,29.35,North,4,6.0,15.0,19,0.00,CLR,,0.00,WeatherDisplay:10.37,2014-01-13 13:55:00,
2014-01-13 06:00:00,60.6,18.1,29.35,North,2,7.0,18.0,19,0.00,CLR,,0.00,WeatherDisplay:10.37,2014-01-13 14:00:00,
2014-01-13 06:05:00,60.6,18.1,29.35,North,360,9.0,23.0,19,0.00,CLR,,0.00,WeatherDisplay:10.37,2014-01-13 14:05:00,
2014-01-13 06:10:00,60.6,18.1,29.35,North,355,7.0,15.0,19,0.00,CLR,,0.00,WeatherDisplay:10.37,2014-01-13 14:10:00,
2014-01-13 06:20:00,60.6,18.1,29.35,NNW,347,9.0,24.0,19,0.00,CLR,,0.00,WeatherDisplay:10.37,2014-01-13 14:20:00,
2014-01-13 06:25:00,60.4,17.9,29.35,North,358,5.0,15.0,19,0.00,CLR,,0.00,WeatherDisplay:10.37,2014-01-13 14:25:00,
2014-01-13 06:30:00,60.3,17.8,29.35,North,4,9.0,17.0,19,0.00,CLR,,0.00,WeatherDisplay:10.37,2014-01-13 14:30:00,
2014-01-13 06:35:00,60.1,17.6,29.35,North,352,7.0,18.0,19,0.00,CLR,,0.00,WeatherDisplay:10.37,2014-01-13 14:35:00,
2014-01-13 06:40:00,60.1,17.6,29.35,North,351,8.0,18.0,19,0.00,CLR,,0.00,WeatherDisplay:10.37,2014-01-13 14:40:00,
2014-01-13 06:45:00,60.1,17.6,29.35,North,359,8.0,14.0,19,0.00,CLR,,0.00,WeatherDisplay:10.37,2014-01-13 14:45:00,
2014-01-13 06:50:00,59.9,17.5,29.35,North,359,7.0,16.0,19,0.00,CLR,,0.00,WeatherDisplay:10.37,2014-01-13 14:50:00,
2014-01-13 06:55:00,59.9,17.5,29.35,North,353,8.0,13.0,19,0.00,CLR,,0.00,WeatherDisplay:10.37,2014-01-13 14:55:00,
2014-01-13 07:00:00,60.1,17.6,29.35,North,357,6.0,17.0,19,0.00,CLR,,0.00,WeatherDisplay:10.37,2014-01-13 15:00:00,
2014-01-13 07:05:00,60.1,17.6,29.35,North,4,7.0,12.0,19,0.00,CLR,,0.00,WeatherDisplay:10.37,2014-01-13 15:05:00,
2014-01-13 07:10:00,59.9,17.5,29.35,North,353,7.0,15.0,19,0.00,CLR,,0.00,WeatherDisplay:10.37,2014-01-13 15:10:00,
2014-01-13 07:15:00,59.8,17.4,29.35,North,354,5.0,12.0,19,0.00,CLR,,0.00,WeatherDisplay:10.37,2014-01-13 15:15:00,
2014-01-13 07:20:00,59.7,17.3,29.35,North,1,6.0,12.0,19,0.00,CLR,,0.00,WeatherDisplay:10.37,2014-01-13 15:20:00,
2014-01-13 07:30:00,59.9,17.5,29.35,North,357,5.0,12.0,19,0.00,CLR,,0.00,WeatherDisplay:10.37,2014-01-13 15:30:00,
2014-01-13 07:40:00,60.3,17.8,29.35,NNW,346,6.0,10.0,19,0.00,CLR,,0.00,WeatherDisplay:10.37,2014-01-13 15:40:00,
2014-01-13 07:45:00,60.4,17.9,29.35,North,355,5.0,11.0,19,0.00,CLR,,0.00,WeatherDisplay:10.37,2014-01-13 15:45:00,
2014-01-13 07:50:00,60.6,18.1,29.35,North,353,8.0,13.0,19,0.00,CLR,,0.00,WeatherDisplay:10.37,2014-01-13 15:50:00,
2014-01-13 08:00:00,61.0,18.4,29.35,NNW,347,8.0,12.0,19,0.00,CLR,,0.00,WeatherDisplay:10.37,2014-01-13 16:00:00,
2014-01-13 08:05:00,61.3,18.7,29.35,North,353,8.0,15.0,19,0.00,CLR,,0.00,WeatherDisplay:10.37,2014-01-13 16:05:00,
2014-01-13 08:10:00,61.8,19.0,29.35,NNW,347,8.0,20.0,19,0.00,CLR,,0.00,WeatherDisplay:10.37,2014-01-13 16:10:00,
2014-01-13 08:15:00,62.2,19.4,29.35,North,351,8.0,15.0,19,0.00,CLR,,0.00,WeatherDisplay:10.37,2014-01-13 16:15:00,
2014-01-13 08:20:00,62.9,18.7,29.35,North,358,9.0,13.0,18,0.00,CLR,,0.00,WeatherDisplay:10.37,2014-01-13 16:20:00,
2014-01-13 08:25:00,63.5,19.2,29.35,North,356,7.0,18.0,18,0.00,CLR,,0.00,WeatherDisplay:10.37,2014-01-13 16:25:00,
2014-01-13 08:30:00,64.0,19.6,29.35,NNW,345,6.0,17.0,18,0.00,CLR,,0.00,WeatherDisplay:10.37,2014-01-13 16:30:00,
2014-01-13 08:40:00,65.1,20.5,29.35,North,349,8.0,15.0,18,0.00,CLR,,0.00,WeatherDisplay:10.37,2014-01-13 16:40:00,
2014-01-13 08:50:00,66.1,21.3,29.35,NNW,348,7.0,15.0,18,0.00,CLR,,0.00,WeatherDisplay:10.37,2014-01-13 16:50:00,
2014-01-13 08:55:00,66.7,20.5,29.35,NNW,342,6.0,15.0,17,0.00,CLR,,0.00,WeatherDisplay:10.37,2014-01-13 16:55:00,
2014-01-13 09:00:00,67.1,20.8,29.35,NNW,330,10.0,14.0,17,0.00,CLR,,0.00,WeatherDisplay:10.37,2014-01-13 17:00:00,
2014-01-13 09:05:00,66.7,20.5,29.35,NNW,333,8.0,14.0,17,0.00,CLR,,0.00,WeatherDisplay:10.37,2014-01-13 17:05:00,
2014-01-13 09:10:00,66.2,20.0,29.35,NNW,342,7.0,12.0,17,0.00,CLR,,0.00,WeatherDisplay:10.37,2014-01-13 17:10:00,
2014-01-13 09:15:00,65.8,21.1,29.35,NNW,340,5.0,11.0,18,0.00,CLR,,0.00,WeatherDisplay:10.37,2014-01-13 17:15:00,
2014-01-13 09:20:00,66.0,21.2,29.35,NNW,343,7.0,10.0,18,0.00,CLR,,0.00,WeatherDisplay:10.37,2014-01-13 17:20:00,
2014-01-13 09:25:00,66.9,20.6,29.35,NNW,346,6.0,13.0,17,0.00,CLR,,0.00,WeatherDisplay:10.37,2014-01-13 17:25:00,
2014-01-13 09:30:00,67.7,21.2,29.35,NNW,347,8.0,14.0,17,0.00,CLR,,0.00,WeatherDisplay:10.37,2014-01-13 17:30:00,
2014-01-13 09:40:00,68.7,22.1,29.35,NNW,340,8.0,18.0,17,0.00,CLR,,0.00,WeatherDisplay:10.37,2014-01-13 17:40:00,
2014-01-13 09:50:00,69.6,22.8,29.35,North,354,8.0,14.0,17,0.00,CLR,,0.00,WeatherDisplay:10.37,2014-01-13 17:50:00,
2014-01-13 10:00:00,70.3,23.4,29.35,North,349,9.0,15.0,17,0.00,CLR,,0.00,WeatherDisplay:10.37,2014-01-13 18:00:00,
2014-01-13 10:05:00,70.5,23.6,29.35,NNW,346,8.0,17.0,17,0.00,CLR,,0.00,WeatherDisplay:10.37,2014-01-13 18:05:00,
2014-01-13 10:10:00,71.0,24.0,29.35,NNW,335,9.0,15.0,17,0.00,CLR,,0.00,WeatherDisplay:10.37,2014-01-13 18:10:00,
2014-01-13 10:20:00,71.6,23.0,29.35,North,356,7.0,17.0,16,0.00,CLR,,0.00,WeatherDisplay:10.37,2014-01-13 18:20:00,
2014-01-13 10:30:00,71.9,23.3,29.35,NNW,344,8.0,17.0,16,0.00,CLR,,0.00,WeatherDisplay:10.37,2014-01-13 18:30:00,
2014-01-13 10:35:00,72.0,23.3,29.35,NNW,345,8.0,13.0,16,0.00,CLR,,0.00,WeatherDisplay:10.37,2014-01-13 18:35:00,
2014-01-13 10:40:00,72.0,23.3,29.35,NNW,342,8.0,13.0,16,0.00,CLR,,0.00,WeatherDisplay:10.37,2014-01-13 18:40:00,
2014-01-13 10:45:00,72.3,23.6,29.35,NNW,346,7.0,17.0,16,0.00,CLR,,0.00,WeatherDisplay:10.37,2014-01-13 18:45:00,
2014-01-13 10:50:00,72.5,23.7,29.35,North,355,9.0,15.0,16,0.00,CLR,,0.00,WeatherDisplay:10.37,2014-01-13 18:50:00,
2014-01-13 10:55:00,72.7,23.9,29.35,North,354,7.0,15.0,16,0.00,CLR,,0.00,WeatherDisplay:10.37,2014-01-13 18:55:00,
2014-01-13 11:00:00,72.8,24.0,29.35,North,349,8.0,15.0,16,0.00,CLR,,0.00,WeatherDisplay:10.37,2014-01-13 19:00:00,
2014-01-13 11:05:00,73.2,24.3,29.35,NNW,346,6.0,15.0,16,0.00,CLR,,0.00,WeatherDisplay:10.37,2014-01-13 19:05:00,
2014-01-13 11:10:00,73.6,24.6,29.35,North,352,8.0,15.0,16,0.00,CLR,,0.00,WeatherDisplay:10.37,2014-01-13 19:10:00,
2014-01-13 11:15:00,73.2,24.3,29.35,North,358,9.0,13.0,16,0.00,CLR,,0.00,WeatherDisplay:10.37,2014-01-13 19:15:00,
2014-01-13 11:20:00,72.9,24.0,29.35,North,10,8.0,12.0,16,0.00,CLR,,0.00,WeatherDisplay:10.37,2014-01-13 19:20:00,
2014-01-13 11:25:00,73.0,24.2,29.35,NNW,348,8.0,16.0,16,0.00,CLR,,0.00,WeatherDisplay:10.37,2014-01-13 19:25:00,
2014-01-13 11:30:00,73.2,24.3,29.35,NNW,347,7.0,13.0,16,0.00,CLR,,0.00,WeatherDisplay:10.37,2014-01-13 19:30:00,
2014-01-13 11:35:00,73.6,24.6,29.35,North,354,8.0,15.0,16,0.00,CLR,,0.00,WeatherDisplay:10.37,2014-01-13 19:35:00,
2014-01-13 11:40:00,73.8,24.7,29.35,North,349,10.0,14.0,16,0.00,CLR,,0.00,WeatherDisplay:10.37,2014-01-13 19:40:00,
2014-01-13 11:50:00,73.9,24.9,29.35,NNW,340,8.0,17.0,16,0.00,CLR,,0.00,WeatherDisplay:10.37,2014-01-13 19:50:00,
2014-01-13 12:00:00,73.8,24.7,29.35,North,349,8.0,15.0,16,0.00,CLR,,0.00,WeatherDisplay:10.37,2014-01-13 20:00:00,
2014-01-13 12:10:00,73.6,24.6,29.35,NNW,345,7.0,15.0,16,0.00,CLR,,0.00,WeatherDisplay:10.37,2014-01-13 20:10:00,
2014-01-13 12:15:00,73.6,24.6,29.35,North,349,8.0,15.0,16,0.00,CLR,,0.00,WeatherDisplay:10.37,2014-01-13 20:15:00,
2014-01-13 12:20:00,73.8,24.7,29.35,North,354,5.0,17.0,16,0.00,CLR,,0.00,WeatherDisplay:10.37,2014-01-13 20:20:00,
2014-01-13 12:30:00,74.4,25.3,29.35,North,356,8.0,15.0,16,0.00,CLR,,0.00,WeatherDisplay:10.37,2014-01-13 20:30:00,
2014-01-13 12:40:00,74.3,25.2,29.35,North,9,7.0,14.0,16,0.00,CLR,,0.00,WeatherDisplay:10.37,2014-01-13 20:40:00,
2014-01-13 12:50:00,74.5,25.3,29.35,North,1,7.0,17.0,16,0.00,CLR,,0.00,WeatherDisplay:10.37,2014-01-13 20:50:00,
2014-01-13 13:00:00,74.8,25.6,29.35,NNE,18,8.0,15.0,16,0.00,CLR,,0.00,WeatherDisplay:10.37,2014-01-13 21:00:00,
2014-01-13 13:05:00,75.0,25.7,29.35,North,2,7.0,15.0,16,0.00,CLR,,0.00,WeatherDisplay:10.37,2014-01-13 21:05:00,
2014-01-13 13:10:00,75.2,24.3,29.35,North,355,7.0,15.0,15,0.00,CLR,,0.00,WeatherDisplay:10.37,2014-01-13 21:10:00,
2014-01-13 13:15:00,75.4,24.5,29.35,North,4,7.0,19.0,15,0.00,CLR,,0.00,WeatherDisplay:10.37,2014-01-13 21:15:00,
2014-01-13 13:20:00,75.6,24.6,29.35,North,358,9.0,15.0,15,0.00,CLR,,0.00,WeatherDisplay:10.37,2014-01-13 21:20:00,
2014-01-13 13:25:00,75.7,24.8,29.35,North,355,7.0,15.0,15,0.00,CLR,,0.00,WeatherDisplay:10.37,2014-01-13 21:25:00,
2014-01-13 13:30:00,75.7,24.8,29.35,North,4,7.0,12.0,15,0.00,CLR,,0.00,WeatherDisplay:10.37,2014-01-13 21:30:00,
2014-01-13 13:40:00,75.9,24.9,29.35,North,357,5.0,12.0,15,0.00,CLR,,0.00,WeatherDisplay:10.37,2014-01-13 21:40:00,
2014-01-13 13:45:00,75.9,24.9,29.35,North,357,5.0,17.0,15,0.00,CLR,,0.00,WeatherDisplay:10.37,2014-01-13 21:45:00,
2014-01-13 13:50:00,75.9,24.9,29.35,North,7,9.0,17.0,15,0.00,CLR,,0.00,WeatherDisplay:10.37,2014-01-13 21:50:00,
2014-01-13 14:00:00,76.1,25.1,29.35,North,349,6.0,12.0,15,0.00,CLR,,0.00,WeatherDisplay:10.37,2014-01-13 22:00:00,
2014-01-13 14:05:00,76.3,25.2,29.35,North,356,6.0,15.0,15,0.00,CLR,,0.00,WeatherDisplay:10.37,2014-01-13 22:05:00,
2014-01-13 14:10:00,76.3,25.2,29.35,North,8,8.0,13.0,15,0.00,CLR,,0.00,WeatherDisplay:10.37,2014-01-13 22:10:00,
2014-01-13 14:20:00,75.9,24.9,29.35,North,7,6.0,13.0,15,0.00,CLR,,0.00,WeatherDisplay:10.37,2014-01-13 22:20:00,
2014-01-13 14:30:00,75.7,24.8,29.35,North,359,8.0,13.0,15,0.00,CLR,,0.00,WeatherDisplay:10.37,2014-01-13 22:30:00,
2014-01-13 14:35:00,75.6,24.6,29.35,NNE,14,8.0,17.0,15,0.00,CLR,,0.00,WeatherDisplay:10.37,2014-01-13 22:35:00,
2014-01-13 14:40:00,75.4,24.5,29.35,North,358,7.0,13.0,15,0.00,CLR,,0.00,WeatherDisplay:10.37,2014-01-13 22:40:00,
2014-01-13 14:45:00,75.1,25.8,29.35,North,355,9.0,15.0,16,0.00,CLR,,0.00,WeatherDisplay:10.37,2014-01-13 22:45:00,
2014-01-13 14:50:00,74.8,25.6,29.35,North,3,8.0,15.0,16,0.00,CLR,,0.00,WeatherDisplay:10.37,2014-01-13 22:50:00,
2014-01-13 14:55:00,74.5,25.3,29.35,North,11,8.0,15.0,16,0.00,CLR,,0.00,WeatherDisplay:10.37,2014-01-13 22:55:00,
2014-01-13 15:00:00,73.9,24.9,29.35,North,6,7.0,15.0,16,0.00,CLR,,0.00,WeatherDisplay:10.37,2014-01-13 23:00:00,
2014-01-13 15:05:00,73.3,24.4,29.35,North,11,6.0,17.0,16,0.00,CLR,,0.00,WeatherDisplay:10.37,2014-01-13 23:05:00,
2014-01-13 15:10:00,73.0,24.2,29.35,North,9,7.0,13.0,16,0.00,CLR,,0.00,WeatherDisplay:10.37,2014-01-13 23:10:00,
2014-01-13 15:15:00,72.7,23.9,29.35,NNE,12,7.0,15.0,16,0.00,CLR,,0.00,WeatherDisplay:10.37,2014-01-13 23:15:00,
2014-01-13 15:20:00,72.5,23.7,29.35,NNE,15,7.0,15.0,16,0.00,CLR,,0.00,WeatherDisplay:10.37,2014-01-13 23:20:00,
2014-01-13 15:25:00,72.3,23.6,29.35,NNE,13,7.0,14.0,16,0.00,CLR,,0.00,WeatherDisplay:10.37,2014-01-13 23:25:00,
2014-01-13 15:30:00,72.0,23.3,29.35,North,8,6.0,13.0,16,0.00,CLR,,0.00,WeatherDisplay:10.37,2014-01-13 23:30:00,
2014-01-13 15:35:00,71.8,23.1,29.35,North,9,7.0,13.0,16,0.00,CLR,,0.00,WeatherDisplay:10.37,2014-01-13 23:35:00,
2014-01-13 15:40:00,71.6,23.0,29.35,North,4,7.0,15.0,16,0.00,CLR,,0.00,WeatherDisplay:10.37,2014-01-13 23:40:00,
2014-01-13 15:45:00,71.6,23.0,29.35,North,3,6.0,13.0,16,0.00,CLR,,0.00,WeatherDisplay:10.37,2014-01-13 23:45:00,
2014-01-13 15:50:00,71.8,23.1,29.35,North,9,10.0,15.0,16,0.00,CLR,,0.00,WeatherDisplay:10.37,2014-01-13 23:50:00,
2014-01-13 15:55:00,71.8,23.1,29.35,North,10,6.0,17.0,16,0.00,CLR,,0.00,WeatherDisplay:10.37,2014-01-13 23:55:00,
2014-01-13 16:00:00,71.4,24.3,29.35,North,3,3.0,12.0,17,0.00,CLR,,0.00,WeatherDisplay:10.37,2014-01-14 00:00:00,
2014-01-13 16:05:00,71.1,24.0,29.35,NNE,16,6.0,12.0,17,0.00,CLR,,0.00,WeatherDisplay:10.37,2014-01-14 00:05:00,
2014-01-13 16:15:00,70.5,23.6,29.35,North,8,6.0,17.0,17,0.00,CLR,,0.00,WeatherDisplay:10.37,2014-01-14 00:15:00,
2014-01-13 16:20:00,70.3,23.4,29.35,North,10,8.0,17.0,17,0.00,CLR,,0.00,WeatherDisplay:10.37,2014-01-14 00:20:00,
2014-01-13 16:25:00,70.0,23.1,29.35,North,8,5.0,12.0,17,0.00,CLR,,0.00,WeatherDisplay:10.37,2014-01-14 00:25:00,
2014-01-13 16:30:00,69.8,23.0,29.35,North,359,6.0,16.0,17,0.00,CLR,,0.00,WeatherDisplay:10.37,2014-01-14 00:30:00,
2014-01-13 16:35:00,69.4,22.7,29.35,North,358,7.0,13.0,17,0.00,CLR,,0.00,WeatherDisplay:10.37,2014-01-14 00:35:00,
2014-01-13 16:40:00,69.1,22.4,29.35,NNE,12,6.0,10.0,17,0.00,CLR,,0.00,WeatherDisplay:10.37,2014-01-14 00:40:00,
2014-01-13 16:45:00,68.9,22.2,29.35,North,3,6.0,16.0,17,0.00,CLR,,0.00,WeatherDisplay:10.37,2014-01-14 00:45:00,
2014-01-13 16:50:00,68.7,22.1,29.35,North,354,6.0,15.0,17,0.00,CLR,,0.00,WeatherDisplay:10.37,2014-01-14 00:50:00,
2014-01-13 16:55:00,68.5,22.0,29.35,North,3,8.0,15.0,17,0.00,CLR,,0.00,WeatherDisplay:10.37,2014-01-14 00:55:00,
2014-01-13 17:00:00,68.5,22.0,29.35,NNE,16,6.0,18.0,17,0.00,CLR,,0.00,WeatherDisplay:10.37,2014-01-14 01:00:00,
2014-01-13 17:05:00,68.4,21.8,29.35,North,9,6.0,12.0,17,0.00,CLR,,0.00,WeatherDisplay:10.37,2014-01-14 01:05:00,
2014-01-13 17:10:00,68.2,21.7,29.35,North,355,7.0,15.0,17,0.00,CLR,,0.00,WeatherDisplay:10.37,2014-01-14 01:10:00,
2014-01-13 17:15:00,68.0,21.5,29.35,North,6,6.0,15.0,17,0.00,CLR,,0.00,WeatherDisplay:10.37,2014-01-14 01:15:00,
2014-01-13 17:20:00,67.8,21.4,29.35,NNE,16,6.0,15.0,17,0.00,CLR,,0.00,WeatherDisplay:10.37,2014-01-14 01:20:00,
2014-01-13 17:25:00,67.6,21.2,29.35,NNE,23,5.0,14.0,17,0.00,CLR,,0.00,WeatherDisplay:10.37,2014-01-14 01:25:00,
2014-01-13 17:30:00,67.5,21.1,29.35,NNE,32,7.0,13.0,17,0.00,CLR,,0.00,WeatherDisplay:10.37,2014-01-14 01:30:00,
2014-01-13 17:35:00,67.5,21.1,29.35,NNE,19,7.0,17.0,17,0.00,CLR,,0.00,WeatherDisplay:10.37,2014-01-14 01:35:00,
2014-01-13 17:40:00,67.5,21.1,29.35,NNE,16,6.0,12.0,17,0.00,CLR,,0.00,WeatherDisplay:10.37,2014-01-14 01:40:00,
2014-01-13 17:50:00,67.3,20.9,29.35,North,359,7.0,15.0,17,0.00,CLR,,0.00,WeatherDisplay:10.37,2014-01-14 01:50:00,
2014-01-13 18:00:00,66.9,20.6,29.35,North,3,7.0,17.0,17,0.00,CLR,,0.00,WeatherDisplay:10.37,2014-01-14 02:00:00,
2014-01-13 18:05:00,66.7,20.5,29.35,North,4,6.0,12.0,17,0.00,CLR,,0.00,WeatherDisplay:10.37,2014-01-14 02:05:00,
2014-01-13 18:10:00,66.6,20.3,29.35,North,7,5.0,13.0,17,0.00,CLR,,0.00,WeatherDisplay:10.37,2014-01-14 02:10:00,
2014-01-13 18:15:00,66.6,20.3,29.35,NNE,15,7.0,12.0,17,0.00,CLR,,0.00,WeatherDisplay:10.37,2014-01-14 02:15:00,
2014-01-13 18:20:00,66.5,20.3,29.35,NNE,14,6.0,12.0,17,0.00,CLR,,0.00,WeatherDisplay:10.37,2014-01-14 02:20:00,
2014-01-13 18:30:00,66.2,20.0,29.35,NNE,21,6.0,13.0,17,0.00,CLR,,0.00,WeatherDisplay:10.37,2014-01-14 02:30:00,
2014-01-13 18:40:00,66.0,21.2,29.35,NNW,348,8.0,11.0,18,0.00,CLR,,0.00,WeatherDisplay:10.37,2014-01-14 02:40:00,
2014-01-13 18:50:00,65.7,21.0,29.35,North,353,5.0,8.0,18,0.00,CLR,,0.00,WeatherDisplay:10.37,2014-01-14 02:50:00,
2014-01-13 18:55:00,65.7,21.0,29.35,North,354,3.0,11.0,18,0.00,CLR,,0.00,WeatherDisplay:10.37,2014-01-14 02:55:00,
2014-01-13 19:00:00,65.5,20.8,29.35,North,357,7.0,11.0,18,0.00,CLR,,0.00,WeatherDisplay:10.37,2014-01-14 03:00:00,
2014-01-13 19:05:00,65.3,20.7,29.35,North,354,3.0,13.0,18,0.00,CLR,,0.00,WeatherDisplay:10.37,2014-01-14 03:05:00,
2014-01-13 19:10:00,65.1,20.5,29.35,North,349,6.0,13.0,18,0.00,CLR,,0.00,WeatherDisplay:10.37,2014-01-14 03:10:00,
2014-01-13 19:15:00,65.0,20.4,29.35,NNW,340,6.0,10.0,18,0.00,CLR,,0.00,WeatherDisplay:10.37,2014-01-14 03:15:00,
2014-01-13 19:20:00,64.8,20.2,29.35,NNW,342,6.0,13.0,18,0.00,CLR,,0.00,WeatherDisplay:10.37,2014-01-14 03:20:00,
2014-01-13 19:25:00,64.6,20.1,29.35,North,353,3.0,11.0,18,0.00,CLR,,0.00,WeatherDisplay:10.37,2014-01-14 03:25:00,
2014-01-13 19:30:00,64.6,20.1,29.35,NNW,346,6.0,12.0,18,0.00,CLR,,0.00,WeatherDisplay:10.37,2014-01-14 03:30:00,
2014-01-13 19:35:00,64.4,19.9,29.35,NNW,333,6.0,13.0,18,0.00,CLR,,0.00,WeatherDisplay:10.37,2014-01-14 03:35:00,
2014-01-13 19:40:00,64.4,19.9,29.35,NNW,332,7.0,14.0,18,0.00,CLR,,0.00,WeatherDisplay:10.37,2014-01-14 03:40:00,
2014-01-13 19:45:00,64.2,19.8,29.35,NNW,332,5.0,10.0,18,0.00,CLR,,0.00,WeatherDisplay:10.37,2014-01-14 03:45:00,
2014-01-13 19:50:00,64.0,19.6,29.35,NNW,338,3.0,12.0,18,0.00,CLR,,0.00,WeatherDisplay:10.37,2014-01-14 03:50:00,
2014-01-13 20:00:00,63.7,19.3,29.35,NNW,341,5.0,11.0,18,0.00,CLR,,0.00,WeatherDisplay:10.37,2014-01-14 04:00:00,
2014-01-13 20:05:00,63.7,19.3,29.35,NNW,345,5.0,9.0,18,0.00,CLR,,0.00,WeatherDisplay:10.37,2014-01-14 04:05:00,
2014-01-13 20:10:00,63.7,19.3,29.35,NNW,347,3.0,9.0,18,0.00,CLR,,0.00,WeatherDisplay:10.37,2014-01-14 04:10:00,
2014-01-13 20:15:00,63.9,19.5,29.35,NNW,345,5.0,8.0,18,0.00,CLR,,0.00,WeatherDisplay:10.37,2014-01-14 04:15:00,
2014-01-13 20:20:00,63.9,19.5,29.35,NNW,336,5.0,11.0,18,0.00,CLR,,0.00,WeatherDisplay:10.37,2014-01-14 04:20:00,
2014-01-13 20:25:00,64.0,19.6,29.35,NNW,341,6.0,8.0,18,0.00,CLR,,0.00,WeatherDisplay:10.37,2014-01-14 04:25:00,
2014-01-13 20:30:00,64.0,19.6,29.35,North,353,6.0,11.0,18,0.00,CLR,,0.00,WeatherDisplay:10.37,2014-01-14 04:30:00,
2014-01-13 20:40:00,63.9,19.5,29.35,NNW,335,3.0,9.0,18,0.00,CLR,,0.00,WeatherDisplay:10.37,2014-01-14 04:40:00,
2014-01-13 20:45:00,63.7,19.3,29.35,NNW,335,6.0,13.0,18,0.00,CLR,,0.00,WeatherDisplay:10.37,2014-01-14 04:45:00,
2014-01-13 20:50:00,63.5,19.2,29.35,NNW,338,6.0,11.0,18,0.00,CLR,,0.00,WeatherDisplay:10.37,2014-01-14 04:50:00,
2014-01-13 20:55:00,63.3,19.0,29.35,NNW,343,3.0,12.0,18,0.00,CLR,,0.00,WeatherDisplay:10.37,2014-01-14 04:55:00,
2014-01-13 21:00:00,63.5,19.2,29.35,NNW,342,6.0,12.0,18,0.00,CLR,,0.00,WeatherDisplay:10.37,2014-01-14 05:00:00,
2014-01-13 21:05:00,63.5,19.2,29.35,NNW,342,5.0,10.0,18,0.00,CLR,,0.00,WeatherDisplay:10.37,2014-01-14 05:05:00,
2014-01-13 21:10:00,63.5,19.2,29.35,North,359,5.0,9.0,18,0.00,CLR,,0.00,WeatherDisplay:10.37,2014-01-14 05:10:00,
2014-01-13 21:15:00,63.3,19.0,29.35,North,351,5.0,11.0,18,0.00,CLR,,0.00,WeatherDisplay:10.37,2014-01-14 05:15:00,
2014-01-13 21:20:00,63.3,19.0,29.35,North,349,5.0,17.0,18,0.00,CLR,,0.00,WeatherDisplay:10.37,2014-01-14 05:20:00,
2014-01-13 21:25:00,63.5,19.2,29.35,NNW,345,6.0,9.0,18,0.00,CLR,,0.00,WeatherDisplay:10.37,2014-01-14 05:25:00,
2014-01-13 21:30:00,63.5,19.2,29.35,NNW,345,6.0,12.0,18,0.00,CLR,,0.00,WeatherDisplay:10.37,2014-01-14 05:30:00,
2014-01-13 21:35:00,63.5,19.2,29.35,NNW,338,8.0,13.0,18,0.00,CLR,,0.00,WeatherDisplay:10.37,2014-01-14 05:35:00,
2014-01-13 21:40:00,63.3,19.0,29.35,North,350,6.0,12.0,18,0.00,CLR,,0.00,WeatherDisplay:10.37,2014-01-14 05:40:00,
2014-01-13 21:45:00,63.3,19.0,29.35,NNW,344,7.0,13.0,18,0.00,CLR,,0.00,WeatherDisplay:10.37,2014-01-14 05:45:00,
2014-01-13 21:50:00,63.1,18.9,29.35,NNW,340,6.0,12.0,18,0.00,CLR,,0.00,WeatherDisplay:10.37,2014-01-14 05:50:00,
2014-01-13 21:55:00,63.1,18.9,29.35,NNW,332,8.0,12.0,18,0.00,CLR,,0.00,WeatherDisplay:10.37,2014-01-14 05:55:00,
2014-01-13 22:00:00,63.3,19.0,29.35,NNW,334,6.0,13.0,18,0.00,CLR,,0.00,WeatherDisplay:10.37,2014-01-14 06:00:00,
2014-01-13 22:05:00,63.5,19.2,29.35,NNW,345,5.0,12.0,18,0.00,CLR,,0.00,WeatherDisplay:10.37,2014-01-14 06:05:00,
2014-01-13 22:10:00,63.7,19.3,29.35,NNW,339,3.0,13.0,18,0.00,CLR,,0.00,WeatherDisplay:10.37,2014-01-14 06:10:00,
2014-01-13 22:15:00,63.9,19.5,29.35,NNW,334,7.0,15.0,18,0.00,CLR,,0.00,WeatherDisplay:10.37,2014-01-14 06:15:00,
2014-01-13 22:20:00,64.0,19.6,29.35,NNW,333,7.0,12.0,18,0.00,CLR,,0.00,WeatherDisplay:10.37,2014-01-14 06:20:00,
2014-01-13 22:25:00,64.2,19.8,29.35,NNW,341,6.0,14.0,18,0.00,CLR,,0.00,WeatherDisplay:10.37,2014-01-14 06:25:00,
2014-01-13 22:30:00,64.2,19.8,29.35,North,349,5.0,13.0,18,0.00,CLR,,0.00,WeatherDisplay:10.37,2014-01-14 06:30:00,
2014-01-13 22:35:00,64.2,19.8,29.35,NNW,347,7.0,18.0,18,0.00,CLR,,0.00,WeatherDisplay:10.37,2014-01-14 06:35:00,
2014-01-13 22:40:00,64.2,19.8,29.35,NNW,334,5.0,18.0,18,0.00,CLR,,0.00,WeatherDisplay:10.37,2014-01-14 06:40:00,
2014-01-13 22:50:00,64.6,20.1,29.35,North,357,8.0,13.0,18,0.00,CLR,,0.00,WeatherDisplay:10.37,2014-01-14 06:50:00,
2014-01-13 23:00:00,64.9,20.4,29.35,North,9,7.0,12.0,18,0.00,CLR,,0.00,WeatherDisplay:10.37,2014-01-14 07:00:00,
2014-01-13 23:05:00,65.1,20.5,29.35,North,356,9.0,11.0,18,0.00,CLR,,0.00,WeatherDisplay:10.37,2014-01-14 07:05:00,
2014-01-13 23:10:00,64.9,20.4,29.35,North,353,5.0,14.0,18,0.00,CLR,,0.00,WeatherDisplay:10.37,2014-01-14 07:10:00,
2014-01-13 23:15:00,64.8,20.2,29.35,North,356,6.0,16.0,18,0.00,CLR,,0.00,WeatherDisplay:10.37,2014-01-14 07:15:00,
2014-01-13 23:20:00,64.6,20.1,29.35,North,356,8.0,16.0,18,0.00,CLR,,0.00,WeatherDisplay:10.37,2014-01-14 07:20:00,
2014-01-13 23:25:00,64.4,19.9,29.35,North,351,7.0,17.0,18,0.00,CLR,,0.00,WeatherDisplay:10.37,2014-01-14 07:25:00,
2014-01-13 23:30:00,64.0,19.6,29.35,NNW,345,5.0,17.0,18,0.00,CLR,,0.00,WeatherDisplay:10.37,2014-01-14 07:30:00,
2014-01-13 23:40:00,63.9,19.5,29.35,North,349,6.0,13.0,18,0.00,CLR,,0.00,WeatherDisplay:10.37,2014-01-14 07:40:00,
2014-01-13 23:45:00,63.7,19.3,29.35,NNW,347,8.0,11.0,18,0.00,CLR,,0.00,WeatherDisplay:10.37,2014-01-14 07:45:00,
2014-01-13 23:50:00,63.7,19.3,29.35,North,354,7.0,15.0,18,0.00,CLR,,0.00,WeatherDisplay:10.37,2014-01-14 07:50:00,
2014-01-13 23:55:00,63.5,19.2,29.35,North,355,7.0,15.0,18,0.00,CLR,,0.00,WeatherDisplay:10.37,2014-01-14 07:55:00,